West Memphis, AR

11:53 PM CDT on August 23, 2016 (GMT -0500)
West Memphis Municipal

Weather History for KAWM - September, 2013

Change the Weather History Date:

Friday, September 6, 2013

  Actual Average Record
Temperature  
Mean Temperature 80 °F -  
Max Temperature 91 °F 86 °F 98 °F (1990)
Min Temperature 68 °F 65 °F 53 °F (1988)
Cooling Degree Days 14    
Growing Degree Days 30 (Base 50)    
Moisture  
Dew Point 65 °F    
Average Humidity 69    
Maximum Humidity 90    
Minimum Humidity 42    
Precipitation  
Precipitation 0.00 in - - ()
Sea Level Pressure  
Sea Level Pressure 30.07 in    
Wind  
Wind Speed 2 mph (ENE)    
Max Wind Speed 7 mph    
Max Gust Speed -    
Visibility 10 miles    
Events      
Averages and records for this station are not official NWS values.
T = Trace of Precipitation, MM = Missing Value Source: NWS Daily Summary

Daily Weather History Graph

Daily Weather History Graph

Search for Another Location

Airport or City:

Trip Planner

Search our weather history database for the weather conditions in past years. The results will help you decide how hot, cold, wet, or windy it might be!

Date:

Astronomy

Sep. 06, 2013 Rise Set
Actual Time 6:37 AM CDT 7:20 PM CDT
Civil Twilight 6:11 AM CDT 7:46 PM CDT
Nautical Twilight 5:41 AM CDT 8:16 PM CDT
Astronomical Twilight 5:10 AM CDT 8:47 PM CDT
Moon 7:45 AM CDT (9/6) 7:50 PM CDT (9/6)
Length of Visible Light 13h 34m
Length of Day
12h 42m
New Moon, 2% of the Moon is Illuminated
Sep 6
New Moon
Sep 12
First Quarter
Sep 19
Full
Sep 26
Last Quarter
Oct 4
New

Hourly Weather History & Observations

Time (CDT) Temp. Heat Index Dew Point Humidity Pressure Visibility Wind Dir Wind Speed Gust Speed Precip Events Conditions
12:53 AM 70.0 °F - 66.0 °F 87% 30.11 in 10.0 mi Calm Calm - N/A   Clear
1:53 AM 70.0 °F - 66.0 °F 87% 30.10 in 10.0 mi Calm Calm - N/A   Clear
2:53 AM 70.0 °F - 66.0 °F 87% 30.09 in 10.0 mi Calm Calm - N/A   Clear
3:53 AM 68.0 °F - 64.9 °F 90% 30.09 in 10.0 mi Calm Calm - N/A   Clear
4:53 AM 68.0 °F - 64.9 °F 90% 30.08 in 10.0 mi ENE 3.5 mph - N/A   Clear
5:53 AM 68.0 °F - 64.0 °F 87% 30.09 in 10.0 mi ENE 3.5 mph - N/A   Clear
6:53 AM 68.0 °F - 64.9 °F 90% 30.09 in 10.0 mi Calm Calm - N/A   Clear
7:53 AM 70.0 °F - 66.0 °F 87% 30.11 in 8.0 mi ENE 3.5 mph - N/A   Clear
8:53 AM 73.0 °F - 64.9 °F 76% 30.12 in 9.0 mi Calm Calm - N/A   Partly Cloudy
9:53 AM 75.9 °F - 66.9 °F 74% 30.13 in 10.0 mi Calm Calm - N/A   Clear
10:53 AM 81.0 °F 83.0 °F 66.0 °F 60% 30.13 in 10.0 mi Variable 4.6 mph - N/A   Clear
11:53 AM 86.0 °F 87.6 °F 64.9 °F 49% 30.12 in 10.0 mi Variable 3.5 mph - N/A   Clear
12:53 PM 89.1 °F 90.0 °F 63.0 °F 42% 30.11 in 10.0 mi East 4.6 mph - N/A   Clear
1:53 PM 90.0 °F 91.3 °F 64.0 °F 42% 30.08 in 10.0 mi Calm Calm - N/A   Clear
2:53 PM 90.0 °F 91.3 °F 64.0 °F 42% 30.06 in 10.0 mi Variable 4.6 mph - N/A   Clear
3:53 PM 91.0 °F 93.0 °F 64.9 °F 42% 30.04 in 10.0 mi Variable 4.6 mph - N/A   Mostly Cloudy
4:53 PM 89.1 °F 90.3 °F 64.0 °F 43% 30.03 in 10.0 mi Calm Calm - N/A   Clear
5:53 PM 88.0 °F 89.6 °F 64.9 °F 46% 30.02 in 10.0 mi NE 6.9 mph - N/A   Clear
6:53 PM 84.0 °F 86.3 °F 66.0 °F 55% 30.02 in 10.0 mi NE 4.6 mph - N/A   Clear
7:53 PM 79.0 °F - 66.0 °F 64% 30.02 in 10.0 mi ENE 3.5 mph - N/A   Clear
8:53 PM 77.0 °F - 66.9 °F 71% 30.02 in 10.0 mi ENE 5.8 mph - N/A   Unknown
9:53 PM 75.9 °F - 66.0 °F 71% 30.03 in 10.0 mi ENE 4.6 mph - N/A   Clear
10:53 PM 73.0 °F - 66.9 °F 81% 30.03 in 10.0 mi Calm Calm - N/A   Clear
11:53 PM 70.0 °F - 66.0 °F 87% 30.03 in 10.0 mi Calm Calm - N/A   Clear